Location: Mainz-Finthen
(49.9906°N, 8.1713°E)
Time: 09:56:39
(UTC+00:00)

N. Korean satellite - Pass Details

Date: 03 December 2022
Orbit: 407 x 444 km, 97.3° (Epoch: 28 January)

Event Time Altitude Azimuth Distance (km) Brightness Sun altitude
Rises 05:40:28 0° 3° (N) 2,524 10.0 -13.1°
Reaches altitude 10° 05:42:43 10° 351° (N) 1,638 9.0 -12.8°
Maximum altitude 05:45:44 27° 293° (WNW) 929 7.4 -12.3°
Drops below altitude 10° 05:48:42 10° 234° (SW) 1,609 8.9 -11.9°
Sets 05:50:54 0° 222° (SW) 2,470 9.9 -11.6°
